date,time,SUV Intensity [MED/Hr],UV Index,Daily total [MED],Since Last [MED]
11/05/2022,00:07:56,-0.000,0.0,0.0,0.0
11/05/2022,00:08:56,0.001,0.0,0.0,0.0
11/05/2022,00:09:55,0.000,0.0,0.0,0.0
11/05/2022,00:10:56,-0.000,0.0,0.0,0.0
11/05/2022,00:11:55,0.000,0.0,0.0,0.0
11/05/2022,00:12:56,0.000,0.0,0.0,0.0
11/05/2022,00:13:55,0.000,0.0,0.0,0.0
11/05/2022,00:14:55,0.000,0.0,0.0,0.0
11/05/2022,00:16:04,-0.000,0.0,0.0,0.0
11/05/2022,00:17:56,-0.001,0.0,0.0,0.0
11/05/2022,00:19:04,-0.000,0.0,0.0,0.0
11/05/2022,00:20:56,0.000,0.0,0.0,0.0
11/05/2022,00:21:56,0.000,0.0,0.0,0.0
11/05/2022,00:22:56,0.001,0.0,0.0,0.0
11/05/2022,00:23:55,-0.000,0.0,0.0,0.0
11/05/2022,00:24:56,-0.001,0.0,0.0,0.0
11/05/2022,00:25:56,0.000,0.0,0.0,0.0
11/05/2022,00:26:56,0.000,0.0,0.0,0.0
11/05/2022,00:27:55,-0.001,0.0,0.0,0.0
11/05/2022,00:28:55,0.000,0.0,0.0,0.0
11/05/2022,00:29:56,0.000,0.0,0.0,0.0
11/05/2022,00:30:56,0.000,0.0,0.0,0.0
11/05/2022,00:32:04,-0.001,0.0,0.0,0.0
11/05/2022,00:33:56,-0.001,0.0,0.0,0.0
11/05/2022,00:34:55,0.001,0.0,0.0,0.0
11/05/2022,00:35:56,0.000,0.0,0.0,0.0
11/05/2022,00:36:55,0.000,0.0,0.0,0.0
11/05/2022,00:37:56,0.000,0.0,0.0,0.0
11/05/2022,00:38:56,0.000,0.0,0.0,0.0
11/05/2022,00:39:56,0.000,0.0,0.0,0.0
11/05/2022,00:40:56,0.000,0.0,0.0,0.0
11/05/2022,00:41:55,-0.000,0.0,0.0,0.0
11/05/2022,00:42:55,0.000,0.0,0.0,0.0
11/05/2022,00:43:56,0.001,0.0,0.0,0.0
11/05/2022,00:44:57,0.000,0.0,0.0,0.0
11/05/2022,00:45:55,0.000,0.0,0.0,0.0
11/05/2022,00:46:56,0.000,0.0,0.0,0.0
11/05/2022,00:47:55,0.001,0.0,0.0,0.0
11/05/2022,00:48:56,0.000,0.0,0.0,0.0
11/05/2022,00:49:56,0.000,0.0,0.0,0.0
11/05/2022,00:50:56,0.000,0.0,0.0,0.0
11/05/2022,00:51:56,0.000,0.0,0.0,0.0
11/05/2022,00:52:56,-0.001,0.0,0.0,0.0
11/05/2022,00:53:55,-0.001,0.0,0.0,0.0
11/05/2022,00:55:04,0.000,0.0,0.0,0.0
11/05/2022,00:55:55,-0.001,0.0,0.0,0.0
11/05/2022,00:56:56,-0.001,0.0,0.0,0.0
11/05/2022,00:57:56,0.001,0.0,0.0,0.0
11/05/2022,00:58:56,0.000,0.0,0.0,0.0
11/05/2022,00:59:55,0.000,0.0,0.0,0.0
11/05/2022,01:00:56,0.001,0.0,0.0,0.0
11/05/2022,01:01:56,0.000,0.0,0.0,0.0
11/05/2022,01:02:55,0.001,0.0,0.0,0.0
11/05/2022,01:03:57,0.000,0.0,0.0,0.0
11/05/2022,01:04:56,0.001,0.0,0.0,0.0
11/05/2022,01:05:56,0.000,0.0,0.0,0.0
11/05/2022,01:06:56,0.000,0.0,0.0,0.0
11/05/2022,01:07:56,0.000,0.0,0.0,0.0
11/05/2022,01:09:04,0.000,0.0,0.0,0.0
11/05/2022,01:10:57,0.000,0.0,0.0,0.0
11/05/2022,01:11:55,-0.000,0.0,0.0,0.0
11/05/2022,01:12:56,-0.000,0.0,0.0,0.0
11/05/2022,01:13:56,-0.001,0.0,0.0,0.0
11/05/2022,01:14:56,0.000,0.0,0.0,0.0
11/05/2022,01:15:56,0.000,0.0,0.0,0.0
11/05/2022,01:16:56,0.000,0.0,0.0,0.0
11/05/2022,01:17:55,0.001,0.0,0.0,0.0
11/05/2022,01:18:55,0.000,0.0,0.0,0.0
11/05/2022,01:19:56,-0.000,0.0,0.0,0.0
11/05/2022,01:21:04,0.001,0.0,0.0,0.0
11/05/2022,01:22:56,0.001,0.0,0.0,0.0
11/05/2022,01:23:56,0.000,0.0,0.0,0.0
11/05/2022,01:24:55,0.000,0.0,0.0,0.0
11/05/2022,01:25:55,0.000,0.0,0.0,0.0
11/05/2022,01:26:56,0.000,0.0,0.0,0.0
11/05/2022,01:27:56,-0.000,0.0,0.0,0.0
11/05/2022,01:28:56,0.000,0.0,0.0,0.0
11/05/2022,01:29:56,0.000,0.0,0.0,0.0
11/05/2022,01:30:57,0.000,0.0,0.0,0.0
11/05/2022,01:31:55,0.000,0.0,0.0,0.0
11/05/2022,01:32:55,-0.001,0.0,0.0,0.0
11/05/2022,01:33:56,-0.001,0.0,0.0,0.0
11/05/2022,01:35:04,0.001,0.0,0.0,0.0
11/05/2022,01:36:56,0.001,0.0,0.0,0.0
11/05/2022,01:37:56,0.000,0.0,0.0,0.0
11/05/2022,01:38:56,0.000,0.0,0.0,0.0
11/05/2022,01:39:55,0.000,0.0,0.0,0.0
11/05/2022,01:40:55,0.000,0.0,0.0,0.0
11/05/2022,01:41:56,-0.000,0.0,0.0,0.0
11/05/2022,01:42:56,0.000,0.0,0.0,0.0
11/05/2022,01:43:55,-0.001,0.0,0.0,0.0
11/05/2022,01:44:56,0.001,0.0,0.0,0.0
11/05/2022,01:45:56,0.000,0.0,0.0,0.0
11/05/2022,01:46:56,-0.000,0.0,0.0,0.0
11/05/2022,01:47:56,0.000,0.0,0.0,0.0
11/05/2022,01:48:56,0.001,0.0,0.0,0.0
11/05/2022,01:49:56,-0.000,0.0,0.0,0.0
11/05/2022,01:50:56,0.001,0.0,0.0,0.0
11/05/2022,01:51:56,-0.000,0.0,0.0,0.0
11/05/2022,01:52:56,0.001,0.0,0.0,0.0
11/05/2022,01:53:56,0.000,0.0,0.0,0.0
11/05/2022,01:54:56,0.000,0.0,0.0,0.0
11/05/2022,01:55:55,0.001,0.0,0.0,0.0
11/05/2022,01:56:56,-0.001,0.0,0.0,0.0
11/05/2022,01:57:55,0.001,0.0,0.0,0.0
11/05/2022,01:58:56,-0.001,0.0,0.0,0.0
11/05/2022,01:59:56,0.000,0.0,0.0,0.0
11/05/2022,02:00:56,0.000,0.0,0.0,0.0
11/05/2022,02:01:56,-0.001,0.0,0.0,0.0
11/05/2022,02:02:56,-0.001,0.0,0.0,0.0
11/05/2022,02:03:56,-0.000,0.0,0.0,0.0
11/05/2022,02:04:56,0.000,0.0,0.0,0.0
11/05/2022,02:05:56,0.000,0.0,0.0,0.0
11/05/2022,02:06:56,0.000,0.0,0.0,0.0
11/05/2022,02:07:56,0.000,0.0,0.0,0.0
11/05/2022,02:08:56,0.000,0.0,0.0,0.0
11/05/2022,02:09:56,-0.000,0.0,0.0,0.0
11/05/2022,02:11:04,0.000,0.0,0.0,0.0
11/05/2022,02:12:57,-0.001,0.0,0.0,0.0
11/05/2022,02:13:56,0.000,0.0,0.0,0.0
11/05/2022,02:14:56,0.000,0.0,0.0,0.0
11/05/2022,02:15:56,0.000,0.0,0.0,0.0
11/05/2022,02:16:56,-0.001,0.0,0.0,0.0
11/05/2022,02:17:57,0.000,0.0,0.0,0.0
11/05/2022,02:18:55,0.000,0.0,0.0,0.0
11/05/2022,02:19:56,0.001,0.0,0.0,0.0
11/05/2022,02:21:04,0.000,0.0,0.0,0.0
11/05/2022,02:22:56,0.000,0.0,0.0,0.0
11/05/2022,02:24:04,0.000,0.0,0.0,0.0
11/05/2022,02:25:57,0.001,0.0,0.0,0.0
11/05/2022,02:26:56,0.000,0.0,0.0,0.0
11/05/2022,02:27:56,0.000,0.0,0.0,0.0
11/05/2022,02:28:55,0.000,0.0,0.0,0.0
11/05/2022,02:29:56,0.000,0.0,0.0,0.0
11/05/2022,02:30:56,0.000,0.0,0.0,0.0
11/05/2022,02:31:56,0.000,0.0,0.0,0.0
11/05/2022,02:32:56,-0.000,0.0,0.0,0.0
11/05/2022,02:34:04,0.001,0.0,0.0,0.0
11/05/2022,02:35:56,-0.001,0.0,0.0,0.0
11/05/2022,02:36:56,0.000,0.0,0.0,0.0
11/05/2022,02:37:56,0.001,0.0,0.0,0.0
11/05/2022,02:38:56,0.000,0.0,0.0,0.0
11/05/2022,02:39:56,-0.000,0.0,0.0,0.0
11/05/2022,02:40:56,0.000,0.0,0.0,0.0
11/05/2022,02:41:56,0.000,0.0,0.0,0.0
11/05/2022,02:42:56,0.000,0.0,0.0,0.0
11/05/2022,02:43:56,0.001,0.0,0.0,0.0
11/05/2022,02:44:56,0.000,0.0,0.0,0.0
11/05/2022,02:45:56,0.000,0.0,0.0,0.0
11/05/2022,02:47:04,-0.001,0.0,0.0,0.0
11/05/2022,02:47:56,-0.001,0.0,0.0,0.0
11/05/2022,02:48:56,0.000,0.0,0.0,0.0
11/05/2022,02:50:04,0.000,0.0,0.0,0.0
11/05/2022,02:51:56,0.000,0.0,0.0,0.0
11/05/2022,02:52:56,0.000,0.0,0.0,0.0
11/05/2022,02:53:56,0.001,0.0,0.0,0.0
11/05/2022,02:54:56,0.000,0.0,0.0,0.0
11/05/2022,02:55:56,0.000,0.0,0.0,0.0
11/05/2022,02:56:56,-0.001,0.0,0.0,0.0
11/05/2022,02:57:56,0.000,0.0,0.0,0.0
11/05/2022,02:58:56,0.001,0.0,0.0,0.0
11/05/2022,03:00:04,-0.000,0.0,0.0,0.0
11/05/2022,03:01:56,0.000,0.0,0.0,0.0
11/05/2022,03:02:56,0.000,0.0,0.0,0.0
11/05/2022,03:03:56,0.000,0.0,0.0,0.0
11/05/2022,03:04:56,0.000,0.0,0.0,0.0
11/05/2022,03:05:55,-0.001,0.0,0.0,0.0
11/05/2022,03:06:56,0.000,0.0,0.0,0.0
11/05/2022,03:07:56,-0.001,0.0,0.0,0.0
11/05/2022,03:08:56,0.001,0.0,0.0,0.0
11/05/2022,03:10:04,0.001,0.0,0.0,0.0
11/05/2022,03:10:56,0.000,0.0,0.0,0.0
11/05/2022,03:11:55,-0.001,0.0,0.0,0.0
11/05/2022,03:13:05,0.000,0.0,0.0,0.0
11/05/2022,03:14:56,0.000,0.0,0.0,0.0
11/05/2022,03:15:56,0.001,0.0,0.0,0.0
11/05/2022,03:16:56,-0.001,0.0,0.0,0.0
11/05/2022,03:17:56,0.000,0.0,0.0,0.0
11/05/2022,03:18:56,0.000,0.0,0.0,0.0
11/05/2022,03:19:56,-0.001,0.0,0.0,0.0
11/05/2022,03:20:56,0.000,0.0,0.0,0.0
11/05/2022,03:21:56,0.001,0.0,0.0,0.0
11/05/2022,03:22:56,0.001,0.0,0.0,0.0
11/05/2022,03:23:56,0.001,0.0,0.0,0.0
11/05/2022,03:24:56,0.001,0.0,0.0,0.0
11/05/2022,03:25:56,0.001,0.0,0.0,0.0
11/05/2022,03:26:56,0.000,0.0,0.0,0.0
11/05/2022,03:27:56,-0.000,0.0,0.0,0.0
11/05/2022,03:28:56,-0.000,0.0,0.0,0.0
11/05/2022,03:29:56,0.001,0.0,0.0,0.0
11/05/2022,03:30:56,-0.000,0.0,0.0,0.0
11/05/2022,03:31:56,0.000,0.0,0.0,0.0
11/05/2022,03:32:56,0.000,0.0,0.0,0.0
11/05/2022,03:33:56,0.000,0.0,0.0,0.0
11/05/2022,03:34:56,0.001,0.0,0.0,0.0
11/05/2022,03:36:05,0.001,0.0,0.0,0.0
11/05/2022,03:38:05,0.000,0.0,0.0,0.0
11/05/2022,03:39:56,0.000,0.0,0.0,0.0
11/05/2022,03:40:55,0.001,0.0,0.0,0.0
11/05/2022,03:41:56,0.001,0.0,0.0,0.0
11/05/2022,03:42:55,0.000,0.0,0.0,0.0
11/05/2022,03:43:56,0.000,0.0,0.0,0.0
11/05/2022,03:44:56,0.000,0.0,0.0,0.0
11/05/2022,03:45:56,0.001,0.0,0.0,0.0
11/05/2022,03:47:04,0.001,0.0,0.0,0.0
11/05/2022,03:48:57,0.000,0.0,0.0,0.0
11/05/2022,03:49:56,0.000,0.0,0.0,0.0
11/05/2022,03:50:56,0.000,0.0,0.0,0.0
11/05/2022,03:51:58,0.000,0.0,0.0,0.0
11/05/2022,03:52:56,0.000,0.0,0.0,0.0
11/05/2022,03:53:56,-0.000,0.0,0.0,0.0
11/05/2022,03:54:56,0.002,0.0,0.0,0.0
11/05/2022,03:55:56,0.001,0.0,0.0,0.0
11/05/2022,03:57:05,0.001,0.0,0.0,0.0
11/05/2022,03:58:56,0.001,0.0,0.0,0.0
11/05/2022,03:59:56,0.001,0.0,0.0,0.0
11/05/2022,04:00:56,0.000,0.0,0.0,0.0
11/05/2022,04:01:56,0.000,0.0,0.0,0.0
11/05/2022,04:02:56,0.001,0.0,0.0,0.0
11/05/2022,04:04:13,0.001,0.0,0.0,0.0
11/05/2022,04:05:56,0.000,0.0,0.0,0.0
11/05/2022,04:06:57,0.001,0.0,0.0,0.0
11/05/2022,04:07:56,0.000,0.0,0.0,0.0
11/05/2022,04:08:56,0.000,0.0,0.0,0.0
11/05/2022,04:10:05,0.001,0.0,0.0,0.0
11/05/2022,04:11:57,0.001,0.0,0.0,0.0
11/05/2022,04:12:56,0.001,0.0,0.0,0.0
11/05/2022,04:13:56,0.000,0.0,0.0,0.0
11/05/2022,04:14:56,0.001,0.0,0.0,0.0
11/05/2022,04:15:56,0.001,0.0,0.0,0.0
11/05/2022,04:16:56,0.001,0.0,0.0,0.0
11/05/2022,04:17:56,0.002,0.0,0.0,0.0
11/05/2022,04:18:56,0.000,0.0,0.0,0.0
11/05/2022,04:19:56,0.001,0.0,0.0,0.0
11/05/2022,04:20:56,0.002,0.0,0.0,0.0
11/05/2022,04:21:56,0.001,0.0,0.0,0.0
11/05/2022,04:23:04,0.001,0.0,0.0,0.0
11/05/2022,04:24:56,0.001,0.0,0.0,0.0
11/05/2022,04:25:56,0.001,0.0,0.0,0.0
11/05/2022,04:26:56,0.001,0.0,0.0,0.0
11/05/2022,04:27:56,0.001,0.0,0.0,0.0
11/05/2022,04:28:56,0.001,0.0,0.0,0.0
11/05/2022,04:29:47,0.001,0.0,0.0,0.0
11/05/2022,04:30:57,0.002,0.0,0.0,0.0
11/05/2022,04:31:56,0.001,0.0,0.0,0.0
11/05/2022,04:32:56,0.001,0.0,0.0,0.0
11/05/2022,04:33:56,0.002,0.0,0.0,0.0
11/05/2022,04:35:05,0.002,0.0,0.0,0.0
11/05/2022,04:36:57,0.002,0.0,0.0,0.0
11/05/2022,04:37:56,0.002,0.0,0.0,0.0
11/05/2022,04:38:56,0.003,0.0,0.0,0.0
11/05/2022,04:39:57,0.002,0.0,0.0,0.0
11/05/2022,04:40:56,0.002,0.0,0.0,0.0
11/05/2022,04:41:56,0.002,0.0,0.0,0.0
11/05/2022,04:42:56,0.003,0.0,0.0,0.0
11/05/2022,04:43:56,0.003,0.0,0.0,0.0
11/05/2022,04:44:56,0.003,0.0,0.0,0.0
11/05/2022,04:45:57,0.003,0.0,0.0,0.0
11/05/2022,04:46:56,0.004,0.0,0.0,0.0
11/05/2022,04:47:56,0.004,0.0,0.0,0.0
11/05/2022,04:48:56,0.005,0.0,0.0,0.0
11/05/2022,04:50:05,0.004,0.0,0.0,0.0
11/05/2022,04:51:57,0.004,0.0,0.0,0.0
11/05/2022,04:52:56,0.005,0.0,0.0,0.0
11/05/2022,04:53:56,0.005,0.0,0.0,0.0
11/05/2022,04:54:56,0.004,0.0,0.0,0.0
11/05/2022,04:55:56,0.004,0.0,0.0,0.0
11/05/2022,04:56:57,0.004,0.0,0.0,0.0
11/05/2022,04:57:56,0.005,0.0,0.0,0.0
11/05/2022,04:58:56,0.004,0.0,0.0,0.0
11/05/2022,05:00:05,0.005,0.0,0.0,0.0
11/05/2022,05:00:56,0.005,0.0,0.0,0.0
11/05/2022,05:01:56,0.005,0.0,0.0,0.0
11/05/2022,05:03:04,0.006,0.0,0.0,0.0
11/05/2022,05:04:57,0.006,0.0,0.0,0.0
11/05/2022,05:05:56,0.007,0.0,0.0,0.0
11/05/2022,05:06:56,0.007,0.0,0.0,0.0
11/05/2022,05:07:56,0.007,0.0,0.0,0.0
11/05/2022,05:08:57,0.007,0.0,0.001,0.001
11/05/2022,05:10:04,0.008,0.0,0.001,0.0
11/05/2022,05:11:56,0.009,0.0,0.001,0.0
11/05/2022,05:13:05,0.009,0.0,0.001,0.0
11/05/2022,05:14:56,0.010,0.0,0.001,0.0
11/05/2022,05:15:56,0.009,0.0,0.002,0.001
11/05/2022,05:16:56,0.009,0.0,0.002,0.0
11/05/2022,05:17:56,0.010,0.0,0.002,0.0
11/05/2022,05:18:56,0.009,0.0,0.002,0.0
11/05/2022,05:19:56,0.009,0.0,0.002,0.0
11/05/2022,05:20:56,0.009,0.0,0.002,0.0
11/05/2022,05:21:56,0.010,0.0,0.003,0.001
11/05/2022,05:23:04,0.009,0.0,0.003,0.0
11/05/2022,05:24:57,0.010,0.0,0.003,0.0
11/05/2022,05:26:04,0.009,0.0,0.003,0.0
11/05/2022,05:27:57,0.010,0.0,0.003,0.0
11/05/2022,05:28:56,0.011,0.0,0.004,0.001
11/05/2022,05:29:56,0.010,0.0,0.004,0.0
11/05/2022,05:30:56,0.009,0.0,0.004,0.0
11/05/2022,05:31:56,0.009,0.0,0.004,0.0
11/05/2022,05:32:56,0.012,0.0,0.004,0.0
11/05/2022,05:33:56,0.014,0.0,0.005,0.001
11/05/2022,05:34:57,0.015,0.0,0.005,0.0
11/05/2022,05:35:56,0.016,0.0,0.005,0.0
11/05/2022,05:37:04,0.017,0.0,0.005,0.0
11/05/2022,05:38:57,0.018,0.0,0.006,0.001
11/05/2022,05:39:57,0.017,0.0,0.006,0.0
11/05/2022,05:40:56,0.017,0.0,0.006,0.0
11/05/2022,05:41:56,0.017,0.0,0.007,0.001
11/05/2022,05:42:56,0.018,0.0,0.007,0.0
11/05/2022,05:43:56,0.018,0.0,0.007,0.0
11/05/2022,05:44:56,0.017,0.0,0.008,0.001
11/05/2022,05:45:56,0.017,0.0,0.008,0.0
11/05/2022,05:47:05,0.016,0.0,0.008,0.0
11/05/2022,05:48:57,0.017,0.0,0.009,0.001
11/05/2022,05:49:56,0.016,0.0,0.009,0.0
11/05/2022,05:50:56,0.015,0.0,0.009,0.0
11/05/2022,05:51:56,0.015,0.0,0.01,0.001
11/05/2022,05:52:56,0.015,0.0,0.01,0.0
11/05/2022,05:53:56,0.019,0.0,0.01,0.0
11/05/2022,05:55:04,0.019,0.0,0.01,0.0
11/05/2022,05:55:55,0.021,0.0,0.011,0.001
11/05/2022,05:56:56,0.023,0.0,0.011,0.0
11/05/2022,05:57:56,0.024,0.0,0.012,0.001
11/05/2022,05:58:56,0.024,0.0,0.012,0.0
11/05/2022,05:59:57,0.024,0.0,0.012,0.0
11/05/2022,06:01:04,0.022,0.0,0.013,0.001
11/05/2022,06:02:56,0.017,0.0,0.013,0.0
11/05/2022,06:03:56,0.018,0.0,0.014,0.001
11/05/2022,06:04:57,0.020,0.0,0.014,0.0
11/05/2022,06:05:56,0.020,0.0,0.014,0.0
11/05/2022,06:06:56,0.019,0.0,0.015,0.001
11/05/2022,06:07:56,0.020,0.0,0.015,0.0
11/05/2022,06:08:56,0.021,0.0,0.015,0.0
11/05/2022,06:09:56,0.022,0.0,0.016,0.001
11/05/2022,06:10:56,0.022,0.0,0.016,0.0
11/05/2022,06:11:56,0.026,0.0,0.016,0.0
11/05/2022,06:12:56,0.027,0.0,0.017,0.001
11/05/2022,06:14:05,0.029,0.0,0.017,0.0
11/05/2022,06:15:57,0.028,0.0,0.018,0.001
11/05/2022,06:16:56,0.028,0.0,0.019,0.001
11/05/2022,06:18:04,0.029,0.0,0.019,0.0
11/05/2022,06:18:56,0.029,0.0,0.02,0.001
11/05/2022,06:19:56,0.027,0.0,0.02,0.0
11/05/2022,06:21:04,0.028,0.0,0.021,0.001
11/05/2022,06:22:57,0.034,0.0,0.022,0.001
11/05/2022,06:24:04,0.038,0.0,0.022,0.0
11/05/2022,06:25:57,0.035,0.0,0.024,0.002
11/05/2022,06:26:57,0.029,0.0,0.024,0.0
11/05/2022,06:27:56,0.026,0.0,0.025,0.001
11/05/2022,06:28:56,0.030,0.0,0.025,0.0
11/05/2022,06:29:56,0.035,0.0,0.026,0.001
11/05/2022,06:30:56,0.039,0.0,0.026,0.0
11/05/2022,06:31:56,0.039,0.0,0.027,0.001
11/05/2022,06:33:03,0.036,0.0,0.028,0.001
11/05/2022,06:33:55,0.040,0.0,0.028,0.0
11/05/2022,06:34:56,0.044,0.0,0.029,0.001
11/05/2022,06:35:56,0.044,0.0,0.029,0.0
11/05/2022,06:36:56,0.042,0.0,0.03,0.001
11/05/2022,06:37:56,0.042,0.0,0.031,0.001
11/05/2022,06:38:57,0.043,0.0,0.032,0.001
11/05/2022,06:39:56,0.044,0.0,0.032,0.0
11/05/2022,06:40:56,0.045,0.0,0.033,0.001
11/05/2022,06:41:56,0.046,0.0,0.034,0.001
11/05/2022,06:42:56,0.047,0.0,0.035,0.001
11/05/2022,06:43:56,0.049,0.0,0.035,0.0
11/05/2022,06:44:56,0.049,0.0,0.036,0.001
11/05/2022,06:45:57,0.050,0.0,0.037,0.001
11/05/2022,06:46:56,0.051,0.0,0.038,0.001
11/05/2022,06:48:04,0.051,0.0,0.039,0.001
11/05/2022,06:49:57,0.057,0.0,0.041,0.002
11/05/2022,06:50:56,0.057,0.0,0.041,0.0
11/05/2022,06:51:56,0.055,0.0,0.042,0.001
11/05/2022,06:52:56,0.065,0.0,0.043,0.001
11/05/2022,06:53:57,0.068,0.0,0.044,0.001
11/05/2022,06:54:56,0.072,0.0,0.046,0.002
11/05/2022,06:55:57,0.086,0.0,0.047,0.001
11/05/2022,06:56:56,0.091,0.0,0.048,0.001
11/05/2022,06:58:05,0.095,0.0,0.05,0.002
11/05/2022,06:59:56,0.090,0.0,0.053,0.003
11/05/2022,07:01:05,0.089,0.0,0.055,0.002
11/05/2022,07:02:57,0.089,0.0,0.057,0.002
11/05/2022,07:03:57,0.096,0.0,0.059,0.002
11/05/2022,07:04:56,0.097,0.0,0.061,0.002
11/05/2022,07:05:56,0.099,0.0,0.062,0.001
11/05/2022,07:06:57,0.101,0.0,0.064,0.002
11/05/2022,07:07:56,0.102,0.0,0.066,0.002
11/05/2022,07:08:56,0.104,0.0,0.067,0.001
11/05/2022,07:09:58,0.107,0.0,0.069,0.002
11/05/2022,07:10:56,0.108,0.0,0.071,0.002
11/05/2022,07:11:56,0.106,0.0,0.073,0.002
11/05/2022,07:12:56,0.104,0.0,0.074,0.001
11/05/2022,07:14:05,0.102,0.0,0.076,0.002
11/05/2022,07:16:05,0.110,0.0,0.08,0.004
11/05/2022,07:17:57,0.128,0.0,0.084,0.004
11/05/2022,07:18:56,0.132,0.0,0.086,0.002
11/05/2022,07:19:56,0.138,0.0,0.088,0.002
11/05/2022,07:20:56,0.135,0.0,0.09,0.002
11/05/2022,07:22:04,0.127,0.0,0.093,0.003
11/05/2022,07:23:57,0.136,0.0,0.097,0.004
11/05/2022,07:24:57,0.137,0.0,0.099,0.002
11/05/2022,07:25:57,0.143,0.0,0.101,0.002
11/05/2022,07:26:57,0.137,0.0,0.104,0.003
11/05/2022,07:27:56,0.115,0.0,0.106,0.002
11/05/2022,07:28:56,0.099,0.0,0.108,0.002
11/05/2022,07:29:57,0.099,0.0,0.109,0.001
11/05/2022,07:30:56,0.092,0.0,0.111,0.002
11/05/2022,07:31:56,0.091,0.0,0.112,0.001
11/05/2022,07:32:56,0.094,0.0,0.114,0.002
11/05/2022,07:33:56,0.103,0.0,0.115,0.001
11/05/2022,07:35:04,0.099,0.0,0.117,0.002
11/05/2022,07:36:57,0.091,0.0,0.12,0.003
11/05/2022,07:37:57,0.092,0.0,0.122,0.002
11/05/2022,07:38:57,0.089,0.0,0.123,0.001
11/05/2022,07:39:56,0.093,0.0,0.125,0.002
11/05/2022,07:40:56,0.117,0.0,0.127,0.002
11/05/2022,07:41:56,0.127,0.0,0.129,0.002
11/05/2022,07:42:57,0.116,0.0,0.131,0.002
11/05/2022,07:43:57,0.111,0.0,0.133,0.002
11/05/2022,07:44:57,0.107,0.0,0.134,0.001
11/05/2022,07:45:57,0.110,0.0,0.136,0.002
11/05/2022,07:46:56,0.112,0.0,0.138,0.002
11/05/2022,07:48:05,0.130,0.0,0.14,0.002
11/05/2022,07:49:56,0.172,0.0,0.145,0.005
11/05/2022,07:50:56,0.188,0.0,0.148,0.003
11/05/2022,07:51:57,0.189,0.0,0.151,0.003
11/05/2022,07:52:56,0.196,0.0,0.154,0.003
11/05/2022,07:53:57,0.191,0.0,0.158,0.004
11/05/2022,07:54:56,0.177,0.0,0.161,0.003
11/05/2022,07:55:57,0.172,0.0,0.163,0.002
11/05/2022,07:56:57,0.189,0.0,0.166,0.003
11/05/2022,07:57:57,0.217,1.0,0.17,0.004
11/05/2022,07:58:56,0.239,1.0,0.174,0.004
11/05/2022,07:59:56,0.244,1.0,0.178,0.004
11/05/2022,08:00:57,0.237,1.0,0.182,0.004
11/05/2022,08:01:57,0.225,1.0,0.186,0.004
11/05/2022,08:02:56,0.231,1.0,0.189,0.003
11/05/2022,08:03:57,0.149,0.0,0.193,0.004
11/05/2022,08:04:56,0.108,0.0,0.195,0.002
11/05/2022,08:05:56,0.127,0.0,0.197,0.002
11/05/2022,08:06:56,0.147,0.0,0.199,0.002
11/05/2022,08:07:57,0.120,0.0,0.201,0.002
11/05/2022,08:08:57,0.104,0.0,0.203,0.002
11/05/2022,08:09:57,0.079,0.0,0.205,0.002
11/05/2022,08:10:57,0.065,0.0,0.206,0.001
11/05/2022,08:12:05,0.074,0.0,0.207,0.001
11/05/2022,08:13:57,0.109,0.0,0.21,0.003
11/05/2022,08:14:57,0.115,0.0,0.212,0.002
11/05/2022,08:15:56,0.146,0.0,0.214,0.002
11/05/2022,08:16:56,0.145,0.0,0.217,0.003
11/05/2022,08:17:57,0.134,0.0,0.219,0.002
11/05/2022,08:18:56,0.120,0.0,0.221,0.002
11/05/2022,08:19:56,0.093,0.0,0.223,0.002
11/05/2022,08:20:57,0.100,0.0,0.224,0.001
11/05/2022,08:22:04,0.136,0.0,0.227,0.003
11/05/2022,08:23:57,0.153,0.0,0.232,0.005
11/05/2022,08:24:56,0.144,0.0,0.234,0.002
11/05/2022,08:25:58,0.184,0.0,0.237,0.003
11/05/2022,08:26:56,0.210,0.0,0.24,0.003
11/05/2022,08:27:56,0.204,0.0,0.243,0.003
11/05/2022,08:28:57,0.181,0.0,0.247,0.004
11/05/2022,08:29:57,0.238,1.0,0.25,0.003
11/05/2022,08:30:57,0.273,1.0,0.254,0.004
11/05/2022,08:31:56,0.264,1.0,0.259,0.005
11/05/2022,08:32:56,0.252,1.0,0.263,0.004
11/05/2022,08:33:57,0.265,1.0,0.267,0.004
11/05/2022,08:34:57,0.259,1.0,0.272,0.005
11/05/2022,08:35:56,0.241,1.0,0.276,0.004
11/05/2022,08:36:56,0.277,1.0,0.28,0.004
11/05/2022,08:37:56,0.264,1.0,0.285,0.005
11/05/2022,08:39:04,0.189,0.0,0.289,0.004
11/05/2022,08:39:56,0.168,0.0,0.292,0.003
11/05/2022,08:40:56,0.164,0.0,0.294,0.002
11/05/2022,08:41:56,0.161,0.0,0.297,0.003
11/05/2022,08:42:56,0.196,0.0,0.3,0.003
11/05/2022,08:43:56,0.223,1.0,0.303,0.003
11/05/2022,08:44:57,0.269,1.0,0.308,0.005
11/05/2022,08:46:04,0.291,1.0,0.313,0.005
11/05/2022,08:47:57,0.306,1.0,0.322,0.009
11/05/2022,08:48:57,0.321,1.0,0.328,0.006
11/05/2022,08:49:56,0.336,1.0,0.333,0.005
11/05/2022,08:50:56,0.321,1.0,0.339,0.006
11/05/2022,08:51:56,0.298,1.0,0.344,0.005
11/05/2022,08:52:56,0.313,1.0,0.349,0.005
11/05/2022,08:53:57,0.314,1.0,0.354,0.005
11/05/2022,08:54:56,0.278,1.0,0.359,0.005
11/05/2022,08:56:05,0.249,1.0,0.364,0.005
11/05/2022,08:57:57,0.260,1.0,0.372,0.008
11/05/2022,08:58:57,0.267,1.0,0.376,0.004
11/05/2022,08:59:56,0.220,1.0,0.38,0.004
11/05/2022,09:00:57,0.222,1.0,0.384,0.004
11/05/2022,09:01:56,0.249,1.0,0.388,0.004
11/05/2022,09:02:56,0.269,1.0,0.392,0.004
11/05/2022,09:03:56,0.260,1.0,0.397,0.005
11/05/2022,09:04:57,0.252,1.0,0.401,0.004
11/05/2022,09:06:05,0.282,1.0,0.406,0.005
11/05/2022,09:07:57,0.268,1.0,0.415,0.009
11/05/2022,09:08:57,0.267,1.0,0.419,0.004
11/05/2022,09:09:57,0.313,1.0,0.424,0.005
11/05/2022,09:10:56,0.327,1.0,0.43,0.006
11/05/2022,09:11:57,0.287,1.0,0.435,0.005
11/05/2022,09:12:56,0.284,1.0,0.439,0.004
11/05/2022,09:13:56,0.273,1.0,0.444,0.005
11/05/2022,09:14:56,0.262,1.0,0.449,0.005
11/05/2022,09:15:56,0.290,1.0,0.453,0.004
11/05/2022,09:16:56,0.308,1.0,0.458,0.005
11/05/2022,09:17:57,0.294,1.0,0.463,0.005
11/05/2022,09:19:05,0.316,1.0,0.469,0.006
11/05/2022,09:21:06,0.333,1.0,0.48,0.011
11/05/2022,09:22:58,0.379,1.0,0.492,0.012
11/05/2022,09:23:56,0.425,1.0,0.498,0.006
11/05/2022,09:24:57,0.488,1.0,0.506,0.008
11/05/2022,09:25:56,0.457,1.0,0.514,0.008
11/05/2022,09:26:56,0.400,1.0,0.521,0.007
11/05/2022,09:27:56,0.480,1.0,0.528,0.007
11/05/2022,09:28:56,0.459,1.0,0.536,0.008
11/05/2022,09:29:57,0.467,1.0,0.544,0.008
11/05/2022,09:30:56,0.437,1.0,0.551,0.007
11/05/2022,09:31:56,0.478,1.0,0.559,0.008
11/05/2022,09:32:57,0.537,1.0,0.567,0.008
11/05/2022,09:33:57,0.485,1.0,0.576,0.009
11/05/2022,09:34:56,0.466,1.0,0.584,0.008
11/05/2022,09:35:57,0.529,1.0,0.592,0.008
11/05/2022,09:37:05,0.538,1.0,0.603,0.011
11/05/2022,09:38:57,0.492,1.0,0.618,0.015
11/05/2022,09:39:56,0.475,1.0,0.626,0.008
11/05/2022,09:40:57,0.505,1.0,0.634,0.008
11/05/2022,09:41:57,0.558,1.0,0.643,0.009
11/05/2022,09:42:56,0.572,1.0,0.653,0.01
11/05/2022,09:43:56,0.583,1.0,0.662,0.009
11/05/2022,09:44:56,0.608,1.0,0.672,0.01
11/05/2022,09:45:57,0.581,1.0,0.682,0.01
11/05/2022,09:47:05,0.550,1.0,0.693,0.011
11/05/2022,09:48:57,0.590,1.0,0.711,0.018
11/05/2022,09:49:57,0.607,1.0,0.72,0.009
11/05/2022,09:50:56,0.628,1.0,0.731,0.011
11/05/2022,09:51:56,0.628,1.0,0.741,0.01
11/05/2022,09:52:56,0.622,1.0,0.752,0.011
11/05/2022,09:53:57,0.628,1.0,0.762,0.01
11/05/2022,09:54:57,0.647,1.0,0.772,0.01
11/05/2022,09:56:05,0.699,2.0,0.785,0.013
11/05/2022,09:57:59,0.741,2.0,0.808,0.023
11/05/2022,09:58:56,0.742,2.0,0.82,0.012
11/05/2022,09:59:57,0.723,2.0,0.832,0.012
11/05/2022,10:00:56,0.704,2.0,0.844,0.012
11/05/2022,10:01:57,0.654,2.0,0.855,0.011
11/05/2022,10:02:56,0.637,1.0,0.866,0.011
11/05/2022,10:03:57,0.642,1.0,0.877,0.011
11/05/2022,10:04:56,0.653,2.0,0.888,0.011
11/05/2022,10:05:57,0.621,1.0,0.899,0.011
11/05/2022,10:06:56,0.713,2.0,0.909,0.01
11/05/2022,10:07:57,0.651,1.0,0.921,0.012
11/05/2022,10:08:57,0.572,1.0,0.931,0.01
11/05/2022,10:09:57,0.499,1.0,0.94,0.009
11/05/2022,10:10:57,0.447,1.0,0.948,0.008
11/05/2022,10:11:57,0.487,1.0,0.955,0.007
11/05/2022,10:12:57,0.503,1.0,0.964,0.009
11/05/2022,10:13:57,0.481,1.0,0.972,0.008
11/05/2022,10:14:57,0.515,1.0,0.98,0.008
11/05/2022,10:15:56,0.484,1.0,0.989,0.009
11/05/2022,10:17:04,0.490,1.0,0.998,0.009
11/05/2022,10:18:57,0.499,1.0,1.013,0.015
11/05/2022,10:19:56,0.588,1.0,1.022,0.009
11/05/2022,10:20:56,0.635,1.0,1.032,0.01
11/05/2022,10:21:57,0.648,1.0,1.043,0.011
11/05/2022,10:22:57,0.659,2.0,1.054,0.011
11/05/2022,10:23:56,0.669,2.0,1.065,0.011
11/05/2022,10:24:57,0.640,1.0,1.076,0.011
11/05/2022,10:25:57,0.704,2.0,1.087,0.011
11/05/2022,10:27:05,0.757,2.0,1.101,0.014
11/05/2022,10:28:57,0.744,2.0,1.125,0.024
11/05/2022,10:29:57,0.747,2.0,1.137,0.012
11/05/2022,10:31:05,0.753,2.0,1.151,0.014
11/05/2022,10:32:58,0.703,2.0,1.174,0.023
11/05/2022,10:33:56,0.660,2.0,1.185,0.011
11/05/2022,10:34:56,0.649,1.0,1.196,0.011
11/05/2022,10:35:56,0.650,1.0,1.207,0.011
11/05/2022,10:36:57,0.731,2.0,1.218,0.011
11/05/2022,10:37:57,0.773,2.0,1.231,0.013
11/05/2022,10:38:57,0.780,2.0,1.244,0.013
11/05/2022,10:39:57,0.814,2.0,1.257,0.013
11/05/2022,10:40:56,0.834,2.0,1.271,0.014
11/05/2022,10:41:56,0.833,2.0,1.285,0.014
11/05/2022,10:42:57,0.891,2.0,1.299,0.014
11/05/2022,10:43:56,0.944,2.0,1.314,0.015
11/05/2022,10:44:57,0.862,2.0,1.33,0.016
11/05/2022,10:45:57,0.834,2.0,1.343,0.013
11/05/2022,10:46:57,0.908,2.0,1.358,0.015
11/05/2022,10:47:57,0.812,2.0,1.373,0.015
11/05/2022,10:48:57,0.732,2.0,1.385,0.012
11/05/2022,10:49:57,0.768,2.0,1.398,0.013
11/05/2022,10:51:05,0.722,2.0,1.413,0.015
11/05/2022,10:52:58,0.645,1.0,1.435,0.022
11/05/2022,10:53:57,0.589,1.0,1.444,0.009
11/05/2022,10:54:56,0.579,1.0,1.454,0.01
11/05/2022,10:55:56,0.657,2.0,1.464,0.01
11/05/2022,10:56:57,0.680,2.0,1.475,0.011
11/05/2022,10:57:57,0.781,2.0,1.488,0.013
11/05/2022,10:58:57,0.754,2.0,1.501,0.013
11/05/2022,10:59:56,0.765,2.0,1.513,0.012